Regional Weather Roundup
Issued by NWS

Home | Current Version | Previous Version | Text Only | Print | Product List | Glossary Off
Versions: 1 2 3 4 5 6 7 8 9 10 11 12 13 14 15 16 17 18 19 20 21 22 23 24 25 26 27 28 29 30 31 32 33 34 35 36 37 38 39 40 41 42 43 44 45 46 47 48 49 50

000
ASUS43 KLSX 051210
RWRMO

WEATHER SUMMARY FOR MISSOURI
NATIONAL WEATHER SERVICE SPRINGFIELD MO
700 AM CDT SAT SEP 05 2015

NOTE: "FAIR" INDICATES FEW OR NO CLOUDS BELOW 12,000 FEET WITH NO
       SIGNIFICANT WEATHER AND/OR OBSTRUCTIONS TO VISIBILITY.
       CURRENT SKY AND/OR WEATHER CONDITIONS ARE NOT AVAILABLE FOR
       CHILLICOTHE AND FARMINGTON.

MOZ001>031-035>038-043-044-053-054-051300-
...NORTHERN AND WESTERN MISSOURI...

CITY           SKY/WX    TMP DP  RH WIND       PRES   REMARKS
KANSAS CTY INT PTCLDY    73  68  84 S10       30.01S
6HR MIN TEMP:  73; 6HR MAX TEMP:  75;

KANSAS C DTWN  CLEAR     77  68  73 SW3       30.00S
6HR MIN TEMP:  76; 6HR MAX TEMP:  80;

LEE`S SUMMIT   CLEAR     74  68  81 S7        30.03R
6HR MIN TEMP:  74; 6HR MAX TEMP:  78;

ST JOSEPH      CLEAR     72  68  87 S5        30.00R
6HR MIN TEMP:  71; 6HR MAX TEMP:  74;

CHILLICOTHE      N/A     73  69  87 SE3       30.04R
6HR MIN TEMP:  71; 6HR MAX TEMP:  74;

KIRKSVILLE     CLEAR     71  67  87 S5        30.07R
6HR MIN TEMP:  69; 6HR MAX TEMP:  73;


$$
MOZ066>068-077>081-088>096-101>105-051300-
...SOUTHWEST MISSOURI...

CITY           SKY/WX    TMP DP  RH WIND       PRES   REMARKS
SPRINGFIELD    CLEAR     73  67  81 SE9       30.08R
6HR MIN TEMP:  73; 6HR MAX TEMP:  77;

JOPLIN         CLEAR     74  68  81 S7        30.05R
6HR MIN TEMP:  73; 6HR MAX TEMP:  78;


$$
MOZ032>034-039>042-045>050-055>058-069>072-051300-
...CENTRAL MISSOURI...

CITY           SKY/WX    TMP DP  RH WIND       PRES   REMARKS
COLUMBIA       CLEAR     71  68  90 SE7       30.07R
6HR MIN TEMP:  70; 6HR MAX TEMP:  75;

JEFFERSON CITY CLEAR     69  67  93 SE5       30.06R FOG
6HR MIN TEMP:  69; 6HR MAX TEMP:  74;

ROLLA          CLEAR     69  67  93 SE7       30.08R
6HR MIN TEMP:  69; 6HR MAX TEMP:  74;

SEDALIA        CLEAR     71  67  87 S7        30.06R
6HR MIN TEMP:  71; 6HR MAX TEMP:  74;

WHITEMAN AFB   CLEAR     72  68  87 S7        30.03R
WARRENSBURG    CLEAR     72  66  83 S5        30.03S
OSAGE BEACH    CLEAR     70  66  88 SE3       30.07R

$$
MOZ051-052-059>065-051300-
...EAST CENTRAL MISSOURI...

CITY           SKY/WX    TMP DP  RH WIND       PRES   REMARKS
ST LOUIS INTL  PTCLDY    74  67  78 E5        30.09R
6HR MIN TEMP:  74; 6HR MAX TEMP:  82;

SPIRIT OF STL  CLEAR     68  68 100 CALM      30.07R FOG
6HR MIN TEMP:  67; 6HR MAX TEMP:  71;

ST CHARLES     CLEAR     71  70  96 E6        30.07R FOG
6HR MIN TEMP:  70; 6HR MAX TEMP:  74;


$$
MOZ072>076-082>087-097>100-106>115-051300-
...SOUTH CENTRAL AND SOUTHEAST MISSOURI...

CITY           SKY/WX    TMP DP  RH WIND       PRES   REMARKS
CAPE GIRARDEAU PTCLDY    66  66 100 CALM      30.07R FOG
6HR MIN TEMP:  66; 6HR MAX TEMP:  71;

FARMINGTON     CLEAR     66  64  94 CALM      30.13R
6HR MIN TEMP:  66; 6HR MAX TEMP:  72;

POPLAR BLUFF   CLEAR     68  67  96 N3        30.06R FOG
6HR MIN TEMP:  68; 6HR MAX TEMP:  72;

WEST PLAINS    CLEAR     67  64  90 CALM      30.12R
6HR MIN TEMP:  66; 6HR MAX TEMP:  71;


$$


USA.gov is the U.S. government's official web portal to all federal, state and local government web resources and services.